Regional Weather Roundup
Issued by NWS

Home | Current Version | Previous Version | Graphics & Text | Print | Product List | Glossary On
Versions: 1 2 3 4 5 6 7 8 9 10 11 12 13 14 15 16 17 18 19 20 21 22 23 24 25 26 27 28 29 30 31 32 33 34 35 36 37 38 39 40 41 42 43 44 45 46 47 48 49 50
148
ASUS43 KIND 301109
RWRIN

WEATHER ROUNDUP FOR INDIANA
NATIONAL WEATHER SERVICE INDIANAPOLIS IN
700 AM EDT MON MAY 30 2016

NOTE: "FAIR" INDICATES FEW OR NO CLOUDS BELOW 12,000 FEET WITH NO
SIGNIFICANT WEATHER AND/OR OBSTRUCTIONS TO VISIBILITY.

* - STATION DOES NOT REPORT WEATHER SUCH AS PRECIPITATION OR FOG.

+ - STATION NOT QUALITY CONTROLLED BY THE NATIONAL WEATHER SERVICE.
    USE DATA WITH CAUTION...ESPECIALLY DEWPOINT AND RELATIVE
    HUMIDITY OBSERVATIONS.

INZ001>003-010>013-019-020-301200-
NORTHWEST INDIANA

CITY           SKY/WX    TMP DP  RH WIND       PRES   REMARKS
GARY /AIRPORT/ PTCLDY    61  61 100 CALM      30.03R
KNOX *+        CLEAR     59  54  82 SW3       30.03S
LA PORTE +     CLEAR     62  61  99 CALM      30.04R
MICHIGAN CITY+ PTCLDY    57  57 100 CALM      30.04R
MONTICELLO +   CLOUDY    61  54  78 CALM      30.04S
RENSSELAER +   CLOUDY    61  59  94 CALM      30.04S
VALPARAISO     CLEAR     60  56  86 SW3       30.04R

$$

LMZ046-743>745-301200-
SOUTHERN LAKE MICHIGAN

STATION/POSITION TIME  TEMP    WIND        PRES    WAVE
                       AIR SEA DIR/SP/G            HT
                 (UTC) (F)     (DEG/KT/KT) (MB)    (FT)
BURNS HARBOR     1000   66     200/  6/  6 1016.9R
MICHIGAN CITY    1000   68     200/ 10/ 11   N/A
5NW MICH CITY    1100   62 58  210/  6/  8   N/A     0

$$

INZ004-005-014>016-021>024-301200-
NORTH CENTRAL INDIANA

CITY           SKY/WX    TMP DP  RH WIND       PRES   REMARKS
ELKHART        CLEAR     57  57 100 CALM      30.03
GOSHEN         CLEAR     59  54  83 CALM      30.03R
LOGANSPORT +   CLOUDY    61  55  82 S3        30.06R
PERU/GRISSOM   CLOUDY    60  57  89 SW5       30.04R
ROCHESTER +    CLEAR     64  59  82 CALM      30.05R
SOUTH BEND     CLEAR     60  56  86 W3        30.03S
WARSAW +       CLEAR     59  59 100 CALM      30.04S

$$

INZ006>009-017-018-025>027-301200-
NORTHEAST INDIANA

CITY           SKY/WX    TMP DP  RH WIND       PRES   REMARKS
ANGOLA *+        N/A     55  55 100 CALM      30.03S
AUBURN +       PTCLDY    61  55  82 CALM      30.04S
FORT WAYNE     PTCLDY    62  56  80 W3        30.04S
HUNTINGTON +   CLEAR    N/A N/A N/A CALM      30.04S

$$

INZ028-029-035-036-043>045-051>053-301200-
WEST CENTRAL INDIANA

CITY           SKY/WX    TMP DP  RH WIND       PRES   REMARKS
CRAWFORDSVL +  PTCLDY    56  56 100 CALM      30.06S
GREENCASTLE +  CLOUDY    59  59 100 CALM      30.06S
LAFAYETTE      CLOUDY    59  57  93 CALM      30.04S
TERRE HAUTE    CLOUDY    59  57  93 CALM      30.06R

$$

INZ030>032-037>040-046>048-054>057-064-065-301200-
CENTRAL INDIANA

CITY           SKY/WX    TMP DP  RH WIND       PRES   REMARKS
CP ATTERBURY + CLEAR     55  55 100 CALM      30.06S FOG
COLUMBUS       CLEAR     59  59 100 CALM      30.05
FISHERS *+     CLOUDY    59  59 100 CALM      30.06
FRANKFORT +      N/A     59  57  92 CALM      30.07S
GREENWOOD *+   CLEAR     61  59  94 CALM      30.06R
INDIANAPOLIS   CLOUDY    66  56  70 CALM      30.03S
-EAGLE CREEK   CLOUDY    66  58  75 N3        30.04S
KOKOMO *+      CLOUDY    63  54  72 W5        30.05R
MARION +       CLOUDY    60  55  85 CALM      30.06R
SHELBYVILLE    CLEAR     62  59  90 CALM      30.05S
ZIONSVILLE +   CLOUDY    58  56  93 CALM      30.06S

$$

INZ033-034-041-042-049-050-058-059-301200-
EAST CENTRAL INDIANA

CITY           SKY/WX    TMP DP  RH WIND       PRES   REMARKS
MUNCIE         CLEAR     62  56  80 CALM      30.06R

$$

INZ060-061-067>069-081>083-085>088-301200-
SOUTHWEST INDIANA

CITY           SKY/WX    TMP DP  RH WIND       PRES   REMARKS
EVANSVILLE     CLOUDY    63  59  87 CALM      30.06R
HUNTINGBURG *+ PTCLDY    61  57  88 CALM      30.06R
WASHINGTON +   CLOUDY    61  61 100 CALM      30.05S

$$

INZ062-063-066-070>080-084-089>092-301200-
SOUTH CENTRAL AND SOUTHEAST INDIANA

CITY           SKY/WX    TMP DP  RH WIND       PRES   REMARKS
BEDFORD +      CLEAR     61  61 100 CALM      30.05S
BLOOMINGTON    CLOUDY    60  58  92 CALM      30.06R
MADISON *+     PTCLDY    63  61  94 CALM      30.08R
NORTH VERNON +   N/A    N/A N/A N/A CALM      30.06R FOG
SEYMOUR +      CLEAR     64  63  94 NW6       30.05R

$$





USA.gov is the U.S. government's official web portal to all federal, state and local government web resources and services.